MDT,Max TemperatureF,Mean TemperatureF,Min TemperatureF,Max Dew PointF,MeanDew PointF,Min DewpointF,Max Humidity, Mean Humidity, Min Humidity, Max Sea Level PressureIn, Mean Sea Level PressureIn, Min Sea Level PressureIn, Max VisibilityMiles, Mean VisibilityMiles, Min VisibilityMiles, Max Wind SpeedMPH, Mean Wind SpeedMPH, Max Gust SpeedMPH,PrecipitationIn, CloudCover, Events, WindDirDegrees
2013-3-1,55,42,28,20,16,9,50,33,14,30.41,30.35,30.27,10,10,10,26,12,37,0.00,0,,276
2013-3-2,63,42,21,23,20,16,78,45,11,30.49,30.35,30.21,10,10,10,14,6,22,0.00,0,,21
2013-3-3,57,42,28,27,22,18,76,45,13,30.19,30.00,29.82,10,10,10,9,6,,0.00,3,,100
2013-3-4,59,47,35,25,21,11,55,35,15,30.10,29.89,29.79,10,10,10,25,7,33,0.00,3,,299
2013-3-5,55,38,21,17,11,5,63,32,5,30.33,30.22,30.13,10,10,10,13,6,,0.00,0,,68
2013-3-6,64,47,30,20,15,11,50,28,6,30.14,30.01,29.89,10,10,10,10,6,18,0.00,0,,92
2013-3-7,68,49,30,22,15,7,66,30,4,30.07,29.94,29.83,10,10,10,14,6,18,0.00,0,,110
2013-3-8,55,44,34,36,29,13,93,67,26,29.91,29.81,29.71,10,10,2,23,7,38,0.16,6,Rain,101
2013-3-9,39,34,28,29,25,20,93,73,47,30.01,29.87,29.71,10,8,1,16,8,25,0.01,5,Snow,265
2013-3-10,52,38,24,27,19,14,88,50,13,30.19,30.12,30.02,10,10,10,13,5,17,0.00,0,,299
2013-3-11,57,39,21,24,20,17,88,48,13,30.24,30.15,30.07,10,10,10,22,8,31,0.00,0,,300
2013-3-12,63,48,33,26,24,21,64,40,14,30.23,30.17,30.11,10,10,10,23,6,29,0.00,0,,267
2013-3-13,66,46,26,28,24,21,81,42,10,30.37,30.29,30.23,10,10,10,15,6,21,0.00,0,,295
2013-3-14,71,49,28,28,22,18,75,36,6,30.39,30.27,30.19,10,10,10,15,5,17,0.00,0,,330
2013-3-15,75,56,36,26,21,15,62,32,5,30.19,30.07,29.92,10,10,10,15,6,18,0.00,0,,65
2013-3-16,70,54,37,30,25,22,60,36,10,29.92,29.85,29.75,10,10,10,24,8,39,0.00,2,Thunderstorm,348
2013-3-17,64,50,37,30,19,3,75,35,4,29.83,29.76,29.65,10,10,10,34,11,47,0.00,1,,332
2013-3-18,59,43,27,14,7,0,51,23,4,30.01,29.96,29.85,10,10,10,22,6,33,0.00,0,,309
2013-3-19,61,47,33,15,13,8,44,26,9,30.17,30.06,29.97,10,10,10,23,7,29,0.00,0,,328
2013-3-20,62,44,26,27,18,12,51,31,10,30.22,30.05,29.81,10,10,10,10,5,,0.00,3,,79
2013-3-21,63,49,35,30,17,-1,65,30,4,29.78,29.71,29.62,10,10,10,30,9,43,0.00,2,,307
2013-3-22,64,42,19,7,-3,-25,40,16,4,29.85,29.71,29.56,10,10,10,28,9,40,0.00,1,,267
2013-3-23,42,32,23,4,-7,-18,36,18,4,30.18,29.95,29.71,10,10,10,26,13,41,0.00,1,,300
2013-3-24,46,28,10,1,-2,-5,56,26,5,30.24,30.13,30.04,10,10,10,21,7,33,0.00,0,,336
2013-3-25,52,32,12,7,3,-3,47,25,7,30.25,30.16,30.11,10,10,10,17,5,28,0.00,0,,299
2013-3-26,63,44,25,13,10,6,49,26,6,30.16,30.04,29.92,10,10,10,10,5,,0.00,0,,77
2013-3-27,69,48,28,17,11,4,51,22,4,30.05,29.97,29.91,10,10,10,17,6,25,0.00,0,,31
2013-3-28,69,53,37,17,12,8,38,19,4,30.08,30.02,29.97,10,10,10,12,6,23,0.00,0,,32
2013-3-29,71,54,37,22,18,12,41,24,6,30.16,30.09,30.02,10,10,10,16,7,25,0.00,0,,15
2013-3-30,71,52,34,25,20,15,57,29,5,30.17,30.07,29.98,10,10,10,18,7,28,0.00,1,,4
2013-3-31,72,53,34,25,21,18,57,30,6,30.09,30.00,29.91,10,10,10,15,7,28,0.00,0,,7